Barbee Lake Weather Center

Moon Phase Calendar



Barbee Lake Water Level
Online Cameras

 


      

Current Conditions in North Webster
10/20/2021 5:58:45 AM

49°F
Feels Like 49
Clear
Humidity
84%
Pressure
30.12"
Wind
0
Dew Point
44°F
UV Index
0/10 (Low)
Visibility
6 mi

Hourly Forecast

Date & Time Wed, Oct 20
5:00 AM
Wed, Oct 20
6:00 AM
Wed, Oct 20
7:00 AM
Wed, Oct 20
8:00 AM
Wed, Oct 20
9:00 AM
Wed, Oct 20
10:00 AM
Wed, Oct 20
11:00 AM
Wed, Oct 20
12:00 PM
Wed, Oct 20
1:00 PM
Wed, Oct 20
2:00 PM
Wed, Oct 20
3:00 PM
Wed, Oct 20
4:00 PM
Wed, Oct 20
5:00 PM
Wed, Oct 20
6:00 PM
Wed, Oct 20
7:00 PM
Wed, Oct 20
8:00 PM
Wed, Oct 20
9:00 PM
Wed, Oct 20
10:00 PM
Wed, Oct 20
11:00 PM
Thu, Oct 21
12:00 AM
Thu, Oct 21
1:00 AM
Thu, Oct 21
2:00 AM
Thu, Oct 21
3:00 AM
Thu, Oct 21
4:00 AM
Thu, Oct 21
5:00 AM
Thu, Oct 21
6:00 AM
Thu, Oct 21
7:00 AM
Thu, Oct 21
8:00 AM
Thu, Oct 21
9:00 AM
Thu, Oct 21
10:00 AM
Thu, Oct 21
11:00 AM
Thu, Oct 21
12:00 PM
Thu, Oct 21
1:00 PM
Thu, Oct 21
2:00 PM
Thu, Oct 21
3:00 PM
Thu, Oct 21
4:00 PM
Thu, Oct 21
5:00 PM
Thu, Oct 21
6:00 PM
Thu, Oct 21
7:00 PM
Thu, Oct 21
8:00 PM
Thu, Oct 21
9:00 PM
Thu, Oct 21
10:00 PM
Thu, Oct 21
11:00 PM
Fri, Oct 22
12:00 AM
Fri, Oct 22
1:00 AM
Fri, Oct 22
2:00 AM
Fri, Oct 22
3:00 AM
Fri, Oct 22
4:00 AM
Condition
Clear

Clear

Clear

Clear

Clear

Clear

Clear

Clouds

Clouds

Clouds

Clouds

Clouds

Clouds

Clouds

Clouds

Clouds

Clouds

Clouds

Clouds

Clouds

Clouds

Rain

Rain

Rain

Rain

Clouds

Clouds

Clouds

Clouds

Clouds

Clouds

Clouds

Clouds

Clouds

Clouds

Clouds

Clouds

Clouds

Clouds

Clouds

Clouds

Clouds

Clouds

Clouds

Clouds

Clouds

Clouds

Clouds
Temperature 49°F49°F49°F49°F50°F55°F60°F63°F66°F68°F69°F69°F68°F64°F60°F58°F58°F58°F58°F56°F57°F58°F58°F58°F58°F57°F56°F56°F57°F57°F56°F57°F58°F58°F56°F55°F54°F53°F53°F53°F54°F53°F51°F50°F49°F46°F44°F44°F
Feels Like 46°F46°F46°F46°F49°F53°F59°F62°F65°F67°F68°F68°F67°F63°F59°F58°F57°F57°F57°F55°F56°F57°F57°F57°F57°F57°F56°F55°F56°F55°F55°F56°F57°F56°F55°F54°F52°F52°F52°F52°F52°F51°F50°F48°F45°F42°F41°F40°F
Cloudiness 3%1%3%4%1%3%5%14%21%20%19%24%49%62%68%74%90%95%97%97%97%98%100%100%100%91%81%80%100%100%92%74%68%71%100%100%100%95%96%97%100%100%100%100%100%100%100%100%
Visibility 6 mi6 mi6 mi6 mi6 mi6 mi6 mi6 mi6 mi6 mi6 mi6 mi6 mi6 mi6 mi6 mi6 mi6 mi6 mi6 mi6 mi4 mi6 mi6 mi6 mi6 mi6 mi6 mi6 mi6 mi6 mi6 mi6 mi6 mi6 mi6 mi6 mi6 mi6 mi6 mi6 mi6 mi6 mi6 mi6 mi6 mi6 mi6 mi
Precipitation 0%0%0%0%0%0%0%0%0%0%0%0%0%0%0%0%7%16%14%15%27%58%88%92%81%81%80%77%0%0%0%0%0%0%0%0%0%0%0%0%0%0%0%0%0%0%0%0%
Humidity 83%84%83%84%82%73%63%56%50%47%44%46%52%65%76%80%81%78%76%77%73%80%82%85%85%88%92%94%92%76%71%68%66%66%68%70%73%75%75%82%81%78%75%68%63%69%71%72%
Dew Point 44°F44°F44°F44°F45°F46°F47°F47°F47°F47°F46°F48°F50°F52°F52°F52°F52°F51°F50°F49°F49°F51°F52°F53°F53°F54°F54°F54°F54°F49°F47°F47°F47°F46°F46°F45°F45°F45°F45°F48°F48°F46°F44°F40°F37°F36°F36°F35°F
Pressure 30.12"30.12"30.12"30.12"30.12"30.12"30.09"30.06"30.06"30.03"30"29.97"29.97"29.94"29.94"29.94"29.97"29.94"29.94"29.91"29.88"29.88"29.85"29.85"29.83"29.83"29.83"29.83"29.83"29.85"29.85"29.85"29.85"29.85"29.85"29.88"29.91"29.91"29.94"29.94"29.97"29.97"30"30"30.03"30.03"30.03"30.03"
Wind Speed 7.2 mph7.2 mph7.2 mph7.4 mph7.2 mph9.6 mph10.7 mph11.9 mph13.3 mph13.9 mph14.5 mph13.1 mph11.6 mph9.4 mph8.5 mph8.7 mph8.9 mph9.9 mph10.4 mph10.3 mph12.1 mph13.5 mph14.3 mph13.4 mph11.3 mph11.7 mph11.7 mph12.2 mph12.7 mph14.2 mph15.3 mph16.3 mph16.5 mph17 mph16 mph15 mph14.1 mph13.3 mph12.9 mph10.9 mph10 mph10.2 mph9.5 mph9.3 mph9.1 mph6.6 mph5.4 mph5.6 mph
Wind
Direction
220°
SW
215°
SW
216°
SW
209°
SSW
205°
SSW
214°
SW
214°
SW
212°
SSW
216°
SW
217°
SW
213°
SSW
213°
SSW
218°
SW
212°
SSW
200°
SSW
194°
SSW
201°
SSW
198°
SSW
194°
SSW
183°
S
191°
S
201°
SSW
202°
SSW
209°
SSW
203°
SSW
213°
SSW
214°
SW
220°
SW
240°
WSW
254°
WSW
253°
WSW
259°
W
264°
W
271°
W
272°
W
276°
W
274°
W
266°
W
268°
W
296°
WNW
321°
NW
338°
NNW
347°
NNW
350°
N
357°
N

N
22°
NNE
39°
NE

Daily Forecast

Date High Low Precip. Humidity
Today
Oct 20

Clouds
69 °F
49 °F
16%
50%
Thursday
Oct 21

Rain
58 °F
51 °F
92%
66%
Friday
Oct 22

Rain
54 °F
44 °F
20%
59%
Saturday
Oct 23

Clouds
55 °F
41 °F
0%
48%
Sunday
Oct 24

Rain
51 °F
39 °F
100%
64%
Monday
Oct 25

Rain
70 °F
47 °F
100%
76%
Tuesday
Oct 26

Clouds
60 °F
48 °F
0%
65%
Wednesday
Oct 27

Clouds
63 °F
49 °F
3%
61%
Thursday
Oct 28

Rain
62 °F
51 °F
100%
92%
Friday
Oct 29

Clear
57 °F
45 °F
20%
50%
Saturday
Oct 30

Clear
57 °F
41 °F
0%
46%
Sunday
Oct 31

Rain
56 °F
42 °F
39%
60%
Monday
Nov 1

Snow
42 °F
36 °F
46%
54%
Tuesday
Nov 2

Snow
43 °F
35 °F
50%
52%
Wednesday
Nov 3

Clouds
48 °F
31 °F
0%
42%
Thursday
Nov 4

Clouds
59 °F
39 °F
0%
60%

Temperature 8-14 Day Outlook



Precipitation 8-14 Day Outlook




Quick Links
Barbee Lake News
Barbee Lake Photos
Barbee Lake Videos




About Us
Contact Us
Site Map
Search Site
Advertise With Us
   
Barbee.LakesOnline.com
THE BARBEE LAKE WEBSITE

Copyright 2021, Lakes Online
Privacy    |    Legal